Regional Weather Roundup
Issued by NWS

Home | Current Version | Previous Version | Graphics & Text | Print | Product List | Glossary Off
Versions: 1 2 3 4 5 6 7 8 9 10 11 12 13 14 15 16 17 18 19 20 21 22 23 24 25 26 27 28 29 30 31 32 33 34 35 36 37 38 39 40 41 42 43 44 45 46 47 48 49 50

000
ASUS43 KDTX 211910
RWRMI
MICHIGAN HOURLY REGIONAL WEATHER ROUNDUP
NATIONAL WEATHER SERVICE DETROIT/PONTIAC MI
200 PM EST SUN DEC 21 2014

NOTE: "FAIR" INDICATES FEW OR NO CLOUDS BELOW 12,000 FEET WITH NO
SIGNIFICANT WEATHER AND/OR OBSTRUCTION TO VISIBILITY.

MIZ047>049-052>055-059>063-066>070-074>076-081>083-212000-
SOUTHEAST LOWER MICHIGAN

CITY           SKY/WX    TMP DP  RH WIND       PRES   REMARKS
ADRIAN         CLOUDY    32  27  81 S5        30.23F
ALMA           CLOUDY    33  28  80 S8        30.20F HAZE
ANN ARBOR      CLOUDY    33  25  72 S5        30.23F
BAD AXE        CLOUDY    32  26  80 S7        30.23F
DETROIT CITY   MOSUNNY   37  23  56 SW9       30.25F
DETROIT        PTSUNNY   35  23  61 S9        30.25F
FLINT          CLOUDY    35  24  64 S9        30.22F
GROSSE ILE     MOSUNNY   34  23  64 SE7       30.24F
HILLSDALE      CLOUDY    33  27  80 S8        30.19F
HOWELL         CLOUDY    32  27  82 SE8       30.21F HAZE

CITY           SKY/WX    TMP DP  RH WIND       PRES   REMARKS
JACKSON        CLOUDY    33  26  75 S8        30.20F
LAMBERTVILLE   CLOUDY    36  27  69 S5        30.24F
LANSING        CLOUDY    33  26  75 S12       30.20F
LAPEER         NOT AVBL
MASON          CLOUDY    32  27  80 S7        30.20F HAZE
MONROE         MOSUNNY   34  25  69 SE6       30.23F
MT. CLEMENS    PTSUNNY   35  26  71 S9        30.22F
PONTIAC        CLOUDY    33  22  63 VRB6      30.21F
PORT HOPE        N/A     33  24  69 VRB7      30.22F
PORT HURON     SUNNY     36  25  64 SE7       30.24F
TRI CITIES     CLOUDY    35  27  72 S9        30.22F
YPSILANTI      CLOUDY    37  23  56 S6        30.24F
$$
MIZ043>046-050>051-056>058-064>065-071>073-077>080-212000-
SOUTHWEST LOWER MICHIGAN

CITY           SKY/WX    TMP DP  RH WIND       PRES   REMARKS
BATTLE CREEK   CLOUDY    34  24  67 S13       30.18F
BENTON HARBOR  CLOUDY    36  28  73 S10       30.16F
BIG RAPIDS     CLOUDY    32  30  91 S6        30.14F
COLDWATER      CLOUDY    32  25  74 MISG      30.19F
HOLLAND        CLOUDY    37  28  70 SE10      30.17F
GRAND RAPIDS   CLOUDY    34  25  69 S8        30.17F HAZE
KALAMAZOO      CLOUDY    34  25  69 S10       30.18F
MARSHALL       CLOUDY    32  25  76 SE8       30.19F
MUSKEGON       CLOUDY    34  27  75 S8        30.16F
$$
MIZ016>042-212000-
NORTHERN LOWER MICHIGAN

CITY           SKY/WX    TMP DP  RH WIND       PRES   REMARKS
ALPENA         CLOUDY    30  25  81 S8        30.20F
BEAVER ISLAND  CLOUDY    33  32  94 SE5       30.11F FOG
BELLAIRE       CLOUDY    33  30  87 S7        30.15F FOG
CADILLAC       CLOUDY    31  28  88 S6        30.12F
CHARLEVOIX     CLOUDY    32  29  90 SE7       30.16F FOG
FRANKFORT      CLOUDY    34  32  92 S12       30.11F FOG
GAYLORD        CLOUDY    29  28  96 S10       30.13F FOG
GRAYLING       CLOUDY    31  30  96 SE3       30.15F FOG
HARBOR SPRINGS CLOUDY    31  27  84 CALM      30.14F
HOUGHTON LAKE  CLOUDY    30  26  85 SE7       30.16F FOG
MANISTEE       CLOUDY    34  28  80 S9        30.13F
OSCODA         CLOUDY    32  27  81 S8        30.21F
PELLSTON       CLOUDY    30  26  85 SE6       30.15F
TRAVERSE CITY  CLOUDY    35  30  82 SE6       30.12F
$$
MIZ007>008-015-212000-
EASTERN UPPER MICHIGAN

CITY           SKY/WX    TMP DP  RH WIND       PRES   REMARKS
KINROSS        CLOUDY    30  28  93 SE10      30.14F
MACKINAC ISLAN CLOUDY    30  26  86 SE7       30.14F
NEWBERRY       CLOUDY    28  27  95 SE8       30.09F
S. S. MARIE    CLOUDY    30  23  75 SE7       30.14F
$$
MIZ004>006-011>014-085-212000-
CENTRAL UPPER MICHIGAN

CITY           SKY/WX    TMP DP  RH WIND       PRES   REMARKS
MANISTIQUE     CLOUDY    35  34  96 S12       30.07F FOG
ESCANABA       CLOUDY    36  30  80 S8        30.04F
MENOMINEE      CLOUDY    36  30  80 S9        30.03F
SAWYER-GWINN   CLOUDY    30  28  93 S17       29.99F FOG
$$
MIZ001>003-009>011-084-212000-
WESTERN UPPER MICHIGAN

CITY           SKY/WX    TMP DP  RH WIND       PRES   REMARKS
IRON MOUNTAIN  CLOUDY    30  28  92 SE7       29.98F FOG
HOUGHTON       CLOUDY    32  28  85 SE8       29.92F
COPPER HARBOR    N/A     35  28  75 SW8G18    29.96F
IRONWOOD       CLOUDY    34  28  80 S12       29.83F
$$

ABBREVIATIONS USED IN REMARKS
   TC - TEMPERATURE IN CELSIUS
  WCI - WIND CHILL INDEX
   HX - HEAT INDEX
  VSB - VISIBILITY



USA.gov is the U.S. government's official web portal to all federal, state and local government web resources and services.